Simultaneous Nadir Overpasses (SNOs) Predictions

Prediction of SNOs between GOES-15 and TERRA Satellite Orbit:

Table of predicted SNOs for the next 14.0 days since TLE Epoch: 2/26/2022
Index Date Time (GOES-15) GOES-15 Lat,Lon TERRA Lat,Lon Distance(km) Time Diff (sec)
1 02/26/2022 06:55:19 -0.00,-127.60 -0.21,-128.54 107.06 80
2 02/28/2022 06:45:45 -0.00,-127.52 0.41,-125.59 219.66 80
3 02/28/2022 19:04:20 -0.00,-127.54 0.68,-130.75 364.21 80
4 03/02/2022 18:52:06 0.00,-127.46 0.06,-127.79 37.31 80
5 03/04/2022 18:42:32 0.01,-127.38 -0.56,-124.84 289.65 80
6 03/05/2022 07:01:15 -0.00,-127.31 -0.58,-130.02 308.49 80
7 03/07/2022 06:51:41 -0.00,-127.22 0.05,-127.07 18.23 80
8 03/09/2022 06:39:26 -0.00,-127.13 0.63,-124.10 343.97 80
9 03/09/2022 18:58:01 -0.00,-127.15 0.46,-129.26 240.40 80
10 03/11/2022 18:48:27 -0.00,-127.05 -0.18,-126.31 84.82 80
